Terug naar catalogus

NOAA 16 DEB

ActiefSSO
NORAD 42354·DEBRIS·🇺🇸 United States

Gelanceerd Sep 21, 2000 vanaf Vandenberg Space Force Base

Loading…

Volgende Passages (komende 24 uur)

TLE

VersSource: Space-Track

Epoch: Sep 14, 2026, 05:45 UTC

1 42354U 00055QW  26257.23989688  .00008063  00000-0  38118-2 0  9993
2 42354  99.1413   8.5246 0024292  81.0127 279.3796 14.19808956533195

Volg NOAA 16 DEB in realtime met AllMySat

Download on the App Store